Time,TemperatureF,DewpointF,PressureIn,WindDirection,WindDirectionDegrees,WindSpeedMPH,WindSpeedGustMPH,Humidity,HourlyPrecipIn,Conditions,Clouds,dailyrainin,SoftwareType,DateUTC
2013-01-01 00:04:00,32.0,32.0,29.47,SW,225,0.0,-999.0,98,0.00,,,0.00,Rainwise IP-100,2013-01-01 08:04:00,
2013-01-01 00:09:00,32.1,31.0,29.46,SE,135,3.3,-999.0,97,0.00,,,0.00,Rainwise IP-100,2013-01-01 08:09:00,
2013-01-01 00:14:00,31.7,31.0,29.46,SSE,157,0.0,-999.0,97,0.00,,,0.00,Rainwise IP-100,2013-01-01 08:14:00,
2013-01-01 00:19:00,31.2,29.0,29.45,SSE,157,0.0,-999.0,97,0.00,,,0.00,Rainwise IP-100,2013-01-01 08:19:00,
2013-01-01 00:24:00,31.0,29.0,29.45,SSE,157,0.0,-999.0,97,0.00,,,0.00,Rainwise IP-100,2013-01-01 08:24:00,
2013-01-01 00:29:00,30.8,29.0,29.45,SSE,157,0.0,-999.0,97,0.00,,,0.00,Rainwise IP-100,2013-01-01 08:29:00,
2013-01-01 00:34:00,30.5,29.0,29.45,SSE,157,0.0,-999.0,97,0.00,,,0.00,Rainwise IP-100,2013-01-01 08:34:00,
2013-01-01 00:39:00,30.6,29.0,29.45,NNE,22,1.2,-999.0,97,0.00,,,0.00,Rainwise IP-100,2013-01-01 08:39:00,
2013-01-01 00:44:00,31.2,31.0,29.45,North,360,0.0,-999.0,98,0.00,,,0.00,Rainwise IP-100,2013-01-01 08:44:00,
2013-01-01 00:49:00,31.3,31.0,29.45,North,360,0.0,-999.0,98,0.00,,,0.00,Rainwise IP-100,2013-01-01 08:49:00,
2013-01-01 00:55:00,31.1,31.0,29.45,North,360,0.0,-999.0,98,0.00,,,0.00,Rainwise IP-100,2013-01-01 08:55:00,
2013-01-01 00:56:00,31.1,31.0,29.45,WNW,292,0.0,-999.0,98,0.00,,,0.00,Rainwise IP-100,2013-01-01 08:56:00,
2013-01-01 01:01:00,31.6,32.0,29.46,East,90,2.3,-999.0,98,0.00,,,0.00,Rainwise IP-100,2013-01-01 09:01:00,
2013-01-01 01:06:00,31.6,32.0,29.46,South,180,2.6,-999.0,98,0.00,,,0.00,Rainwise IP-100,2013-01-01 09:06:00,
2013-01-01 01:11:00,31.5,32.0,29.46,South,180,0.0,-999.0,98,0.00,,,0.00,Rainwise IP-100,2013-01-01 09:11:00,
2013-01-01 01:16:00,31.2,31.0,29.46,South,180,0.0,-999.0,98,0.00,,,0.00,Rainwise IP-100,2013-01-01 09:16:00,
2013-01-01 01:21:00,30.9,31.0,29.46,South,180,0.0,-999.0,98,0.00,,,0.00,Rainwise IP-100,2013-01-01 09:21:00,
2013-01-01 01:26:00,30.6,31.0,29.46,South,180,0.0,-999.0,98,0.00,,,0.00,Rainwise IP-100,2013-01-01 09:26:00,
2013-01-01 01:31:00,30.4,31.0,29.47,South,180,0.0,-999.0,98,0.00,,,0.00,Rainwise IP-100,2013-01-01 09:31:00,
2013-01-01 01:36:00,30.5,31.0,29.47,South,180,0.0,-999.0,98,0.00,,,0.00,Rainwise IP-100,2013-01-01 09:36:00,
2013-01-01 01:41:00,30.3,31.0,29.47,South,180,0.0,-999.0,98,0.00,,,0.00,Rainwise IP-100,2013-01-01 09:41:00,
2013-01-01 01:46:00,29.8,31.0,29.47,South,180,0.0,-999.0,98,0.00,,,0.00,Rainwise IP-100,2013-01-01 09:46:00,
2013-01-01 01:51:00,29.8,31.0,29.47,South,180,0.0,-999.0,98,0.00,,,0.00,Rainwise IP-100,2013-01-01 09:51:00,
2013-01-01 01:56:00,29.8,31.0,29.47,South,180,0.0,-999.0,99,0.00,,,0.00,Rainwise IP-100,2013-01-01 09:56:00,
2013-01-01 02:01:00,29.7,31.0,29.47,South,180,0.0,-999.0,99,0.00,,,0.00,Rainwise IP-100,2013-01-01 10:01:00,
2013-01-01 02:06:00,29.4,29.0,29.47,SSW,202,2.1,-999.0,99,0.00,,,0.00,Rainwise IP-100,2013-01-01 10:06:00,
2013-01-01 02:11:00,29.1,29.0,29.47,SW,225,0.0,-999.0,99,0.00,,,0.00,Rainwise IP-100,2013-01-01 10:11:00,
2013-01-01 02:16:00,29.1,29.0,29.47,SW,225,0.0,-999.0,99,0.00,,,0.00,Rainwise IP-100,2013-01-01 10:16:00,
2013-01-01 02:21:00,29.3,29.0,29.48,SW,225,0.0,-999.0,99,0.00,,,0.00,Rainwise IP-100,2013-01-01 10:21:00,
2013-01-01 02:26:00,29.5,31.0,29.47,SSW,202,1.4,-999.0,99,0.00,,,0.00,Rainwise IP-100,2013-01-01 10:26:00,
2013-01-01 02:31:00,29.7,31.0,29.48,SSW,202,0.0,-999.0,99,0.00,,,0.00,Rainwise IP-100,2013-01-01 10:31:00,
2013-01-01 02:36:00,29.7,31.0,29.48,SSW,202,0.0,-999.0,99,0.00,,,0.00,Rainwise IP-100,2013-01-01 10:36:00,
2013-01-01 02:41:00,29.5,31.0,29.48,SSW,202,0.0,-999.0,99,0.00,,,0.00,Rainwise IP-100,2013-01-01 10:41:00,
2013-01-01 02:46:00,29.4,29.0,29.48,SSW,202,0.0,-999.0,99,0.00,,,0.00,Rainwise IP-100,2013-01-01 10:46:00,
2013-01-01 02:51:00,29.4,29.0,29.48,SSW,202,0.0,-999.0,99,0.00,,,0.00,Rainwise IP-100,2013-01-01 10:51:00,
2013-01-01 02:56:00,29.4,29.0,29.48,SSW,202,0.0,-999.0,99,0.00,,,0.00,Rainwise IP-100,2013-01-01 10:56:00,
2013-01-01 03:01:00,29.4,29.0,29.48,WSW,247,0.0,-999.0,99,0.00,,,0.00,Rainwise IP-100,2013-01-01 11:01:00,
2013-01-01 03:06:00,29.4,29.0,29.48,WSW,247,1.4,-999.0,99,0.00,,,0.00,Rainwise IP-100,2013-01-01 11:06:00,
2013-01-01 03:11:00,29.5,31.0,29.48,WSW,247,0.0,-999.0,99,0.00,,,0.00,Rainwise IP-100,2013-01-01 11:11:00,
2013-01-01 03:16:00,29.5,31.0,29.48,WSW,247,0.0,-999.0,99,0.00,,,0.00,Rainwise IP-100,2013-01-01 11:16:00,
2013-01-01 03:21:00,29.4,29.0,29.48,WSW,247,0.0,-999.0,99,0.00,,,0.00,Rainwise IP-100,2013-01-01 11:21:00,
2013-01-01 03:26:00,29.2,29.0,29.48,WSW,247,0.0,-999.0,99,0.00,,,0.00,Rainwise IP-100,2013-01-01 11:26:00,
2013-01-01 03:31:00,29.0,29.0,29.48,WSW,247,0.0,-999.0,99,0.00,,,0.00,Rainwise IP-100,2013-01-01 11:31:00,
2013-01-01 03:36:00,28.9,29.0,29.48,WSW,247,1.9,-999.0,99,0.00,,,0.00,Rainwise IP-100,2013-01-01 11:36:00,
2013-01-01 03:41:00,28.9,29.0,29.48,WSW,247,0.0,-999.0,99,0.00,,,0.00,Rainwise IP-100,2013-01-01 11:41:00,
2013-01-01 03:46:00,28.9,29.0,29.49,WSW,247,0.0,-999.0,99,0.00,,,0.00,Rainwise IP-100,2013-01-01 11:46:00,
2013-01-01 03:51:00,28.9,29.0,29.49,WSW,247,0.0,-999.0,99,0.00,,,0.00,Rainwise IP-100,2013-01-01 11:51:00,
2013-01-01 03:56:00,28.7,29.0,29.49,SSW,202,0.0,-999.0,99,0.00,,,0.00,Rainwise IP-100,2013-01-01 11:56:00,
2013-01-01 04:01:00,28.4,28.0,29.49,South,180,0.0,-999.0,99,0.00,,,0.00,Rainwise IP-100,2013-01-01 12:01:00,
2013-01-01 04:06:00,28.4,28.0,29.49,South,180,0.0,-999.0,99,0.00,,,0.00,Rainwise IP-100,2013-01-01 12:06:00,
2013-01-01 04:11:00,28.2,28.0,29.49,South,180,0.0,-999.0,100,0.00,,,0.00,Rainwise IP-100,2013-01-01 12:11:00,
2013-01-01 04:16:00,27.9,28.0,29.48,SSW,202,1.2,-999.0,100,0.00,,,0.00,Rainwise IP-100,2013-01-01 12:16:00,
2013-01-01 04:21:00,27.8,28.0,29.48,SSW,202,0.0,-999.0,99,0.00,,,0.00,Rainwise IP-100,2013-01-01 12:21:00,
2013-01-01 04:26:00,27.9,28.0,29.48,SSW,202,0.0,-999.0,99,0.00,,,0.00,Rainwise IP-100,2013-01-01 12:26:00,
2013-01-01 04:31:00,28.0,28.0,29.48,SSW,202,0.0,-999.0,100,0.00,,,0.00,Rainwise IP-100,2013-01-01 12:31:00,
2013-01-01 04:36:00,27.6,28.0,29.48,SW,225,1.9,-999.0,100,0.00,,,0.00,Rainwise IP-100,2013-01-01 12:36:00,
2013-01-01 04:41:00,27.5,28.0,29.48,WSW,247,0.0,-999.0,100,0.00,,,0.00,Rainwise IP-100,2013-01-01 12:41:00,
2013-01-01 04:46:00,27.9,28.0,29.48,WSW,247,0.0,-999.0,100,0.00,,,0.00,Rainwise IP-100,2013-01-01 12:46:00,
2013-01-01 04:51:00,28.1,28.0,29.48,WSW,247,2.3,-999.0,100,0.00,,,0.00,Rainwise IP-100,2013-01-01 12:51:00,
2013-01-01 04:56:00,28.0,28.0,29.48,WSW,247,1.4,-999.0,100,0.00,,,0.00,Rainwise IP-100,2013-01-01 12:56:00,
2013-01-01 05:01:00,27.9,28.0,29.48,WSW,247,0.0,-999.0,100,0.00,,,0.00,Rainwise IP-100,2013-01-01 13:01:00,
2013-01-01 05:06:00,28.0,28.0,29.48,WSW,247,0.0,-999.0,100,0.00,,,0.00,Rainwise IP-100,2013-01-01 13:06:00,
2013-01-01 05:11:00,27.9,28.0,29.48,WSW,247,0.0,-999.0,100,0.00,,,0.00,Rainwise IP-100,2013-01-01 13:11:00,
2013-01-01 05:16:00,27.6,28.0,29.48,WSW,247,0.0,-999.0,100,0.00,,,0.00,Rainwise IP-100,2013-01-01 13:16:00,
2013-01-01 05:21:00,27.4,28.0,29.48,WSW,247,0.0,-999.0,100,0.00,,,0.00,Rainwise IP-100,2013-01-01 13:21:00,
2013-01-01 05:26:00,27.5,28.0,29.48,WSW,247,0.0,-999.0,100,0.00,,,0.00,Rainwise IP-100,2013-01-01 13:26:00,
2013-01-01 05:31:00,27.6,28.0,29.48,WSW,247,1.4,-999.0,100,0.00,,,0.00,Rainwise IP-100,2013-01-01 13:31:00,
2013-01-01 05:36:00,27.5,28.0,29.49,WSW,247,0.0,-999.0,100,0.00,,,0.00,Rainwise IP-100,2013-01-01 13:36:00,
2013-01-01 05:41:00,27.5,28.0,29.48,WSW,247,0.0,-999.0,100,0.00,,,0.00,Rainwise IP-100,2013-01-01 13:41:00,
2013-01-01 05:46:00,27.6,28.0,29.48,WSW,247,0.0,-999.0,100,0.00,,,0.00,Rainwise IP-100,2013-01-01 13:46:00,
2013-01-01 05:51:00,27.4,28.0,29.49,WSW,247,0.0,-999.0,100,0.00,,,0.00,Rainwise IP-100,2013-01-01 13:51:00,
2013-01-01 05:56:00,27.0,28.0,29.48,WSW,247,1.9,-999.0,100,0.00,,,0.00,Rainwise IP-100,2013-01-01 13:56:00,
2013-01-01 06:01:00,26.7,28.0,29.49,WSW,247,0.0,-999.0,100,0.00,,,0.00,Rainwise IP-100,2013-01-01 14:01:00,
2013-01-01 06:06:00,26.8,28.0,29.48,WSW,247,1.4,-999.0,100,0.00,,,0.00,Rainwise IP-100,2013-01-01 14:06:00,
2013-01-01 06:11:00,27.1,28.0,29.49,WSW,247,0.0,-999.0,100,0.00,,,0.00,Rainwise IP-100,2013-01-01 14:11:00,
2013-01-01 06:16:00,27.4,28.0,29.49,WSW,247,0.0,-999.0,100,0.00,,,0.00,Rainwise IP-100,2013-01-01 14:16:00,
2013-01-01 06:21:00,27.4,28.0,29.50,WSW,247,0.0,-999.0,100,0.00,,,0.00,Rainwise IP-100,2013-01-01 14:21:00,
2013-01-01 06:26:00,27.4,28.0,29.50,WSW,247,0.0,-999.0,100,0.00,,,0.00,Rainwise IP-100,2013-01-01 14:26:00,
2013-01-01 06:31:00,27.1,28.0,29.50,WSW,247,0.0,-999.0,100,0.00,,,0.00,Rainwise IP-100,2013-01-01 14:31:00,
2013-01-01 06:36:00,26.7,28.0,29.50,WSW,247,0.0,-999.0,100,0.00,,,0.00,Rainwise IP-100,2013-01-01 14:36:00,
2013-01-01 06:41:00,26.5,28.0,29.49,WSW,247,2.1,-999.0,100,0.00,,,0.00,Rainwise IP-100,2013-01-01 14:41:00,
2013-01-01 06:46:00,26.4,26.0,29.49,WSW,247,0.0,-999.0,100,0.00,,,0.00,Rainwise IP-100,2013-01-01 14:46:00,
2013-01-01 06:51:00,26.4,26.0,29.49,WSW,247,0.0,-999.0,100,0.00,,,0.00,Rainwise IP-100,2013-01-01 14:51:00,
2013-01-01 06:56:00,26.5,28.0,29.49,WSW,247,1.2,-999.0,100,0.00,,,0.00,Rainwise IP-100,2013-01-01 14:56:00,
2013-01-01 07:01:00,26.3,26.0,29.49,WSW,247,0.0,-999.0,100,0.00,,,0.00,Rainwise IP-100,2013-01-01 15:01:00,
2013-01-01 07:06:00,26.0,26.0,29.49,WSW,247,0.0,-999.0,100,0.00,,,0.00,Rainwise IP-100,2013-01-01 15:06:00,
2013-01-01 07:11:00,25.9,26.0,29.49,WSW,247,0.0,-999.0,100,0.00,,,0.00,Rainwise IP-100,2013-01-01 15:11:00,
2013-01-01 07:16:00,25.9,26.0,29.49,WSW,247,1.4,-999.0,100,0.00,,,0.00,Rainwise IP-100,2013-01-01 15:16:00,
2013-01-01 07:21:00,25.8,26.0,29.49,WSW,247,1.2,-999.0,100,0.00,,,0.00,Rainwise IP-100,2013-01-01 15:21:00,
2013-01-01 07:26:00,26.1,26.0,29.49,WSW,247,0.0,-999.0,100,0.00,,,0.00,Rainwise IP-100,2013-01-01 15:26:00,
2013-01-01 07:31:00,26.5,28.0,29.49,WSW,247,0.0,-999.0,100,0.00,,,0.00,Rainwise IP-100,2013-01-01 15:31:00,
2013-01-01 07:36:00,26.4,26.0,29.49,WSW,247,0.0,-999.0,100,0.00,,,0.00,Rainwise IP-100,2013-01-01 15:36:00,
2013-01-01 07:41:00,26.2,26.0,29.49,WSW,247,0.0,-999.0,100,0.00,,,0.00,Rainwise IP-100,2013-01-01 15:41:00,
2013-01-01 07:46:00,26.3,26.0,29.50,WSW,247,0.0,-999.0,100,0.00,,,0.00,Rainwise IP-100,2013-01-01 15:46:00,
2013-01-01 07:51:00,26.4,26.0,29.49,WSW,247,0.0,-999.0,100,0.00,,,0.00,Rainwise IP-100,2013-01-01 15:51:00,
2013-01-01 07:56:00,26.6,28.0,29.49,WSW,247,0.0,-999.0,100,0.00,,,0.00,Rainwise IP-100,2013-01-01 15:56:00,
2013-01-01 08:01:00,26.7,28.0,29.50,WSW,247,0.0,-999.0,100,0.00,,,0.00,Rainwise IP-100,2013-01-01 16:01:00,
2013-01-01 08:06:00,26.7,28.0,29.49,WSW,247,1.9,-999.0,100,0.00,,,0.00,Rainwise IP-100,2013-01-01 16:06:00,
2013-01-01 08:11:00,26.9,28.0,29.49,WSW,247,0.0,-999.0,100,0.00,,,0.00,Rainwise IP-100,2013-01-01 16:11:00,
2013-01-01 08:16:00,27.5,28.0,29.49,SSE,157,0.0,-999.0,100,0.00,,,0.00,Rainwise IP-100,2013-01-01 16:16:00,
2013-01-01 08:21:00,28.4,28.0,29.49,East,90,0.0,-999.0,100,0.00,,,0.00,Rainwise IP-100,2013-01-01 16:21:00,
2013-01-01 08:26:00,28.9,29.0,29.48,East,90,0.0,-999.0,100,0.00,,,0.00,Rainwise IP-100,2013-01-01 16:26:00,
2013-01-01 08:31:00,29.0,29.0,29.49,East,90,0.0,-999.0,100,0.00,,,0.00,Rainwise IP-100,2013-01-01 16:31:00,
2013-01-01 08:36:00,29.6,31.0,29.49,East,90,1.6,-999.0,100,0.00,,,0.00,Rainwise IP-100,2013-01-01 16:36:00,
2013-01-01 08:41:00,30.1,31.0,29.49,East,90,0.0,-999.0,100,0.00,,,0.00,Rainwise IP-100,2013-01-01 16:41:00,
2013-01-01 08:46:00,30.5,31.0,29.50,SE,135,0.0,-999.0,100,0.00,,,0.00,Rainwise IP-100,2013-01-01 16:46:00,
2013-01-01 08:51:00,31.0,31.0,29.49,SE,135,0.0,-999.0,100,0.00,,,0.00,Rainwise IP-100,2013-01-01 16:51:00,
2013-01-01 08:56:00,31.7,32.0,29.50,SE,135,1.4,-999.0,100,0.00,,,0.00,Rainwise IP-100,2013-01-01 16:56:00,
2013-01-01 09:01:00,32.5,33.0,29.50,ESE,112,2.3,-999.0,99,0.00,,,0.00,Rainwise IP-100,2013-01-01 17:01:00,
2013-01-01 09:06:00,32.9,33.0,29.50,SE,135,0.0,-999.0,99,0.00,,,0.00,Rainwise IP-100,2013-01-01 17:06:00,
2013-01-01 09:11:00,33.2,33.0,29.50,SSW,202,0.0,-999.0,98,0.00,,,0.00,Rainwise IP-100,2013-01-01 17:11:00,
2013-01-01 09:16:00,33.7,35.0,29.50,SSE,157,0.0,-999.0,98,0.00,,,0.00,Rainwise IP-100,2013-01-01 17:16:00,
2013-01-01 09:21:00,33.9,35.0,29.51,SSE,157,0.0,-999.0,98,0.00,,,0.00,Rainwise IP-100,2013-01-01 17:21:00,
2013-01-01 09:26:00,34.2,33.0,29.50,ESE,112,1.6,-999.0,97,0.00,,,0.00,Rainwise IP-100,2013-01-01 17:26:00,
2013-01-01 09:31:00,34.8,33.0,29.50,ESE,112,0.0,-999.0,97,0.00,,,0.00,Rainwise IP-100,2013-01-01 17:31:00,
2013-01-01 09:36:00,35.3,33.0,29.50,SE,135,2.8,-999.0,97,0.00,,,0.00,Rainwise IP-100,2013-01-01 17:36:00,
2013-01-01 09:41:00,35.8,35.0,29.51,ESE,112,0.0,-999.0,95,0.00,,,0.00,Rainwise IP-100,2013-01-01 17:41:00,
2013-01-01 09:46:00,36.5,36.0,29.50,ENE,67,1.2,-999.0,95,0.00,,,0.00,Rainwise IP-100,2013-01-01 17:46:00,
2013-01-01 09:51:00,37.1,36.0,29.51,East,90,0.0,-999.0,94,0.00,,,0.00,Rainwise IP-100,2013-01-01 17:51:00,
2013-01-01 09:56:00,37.8,36.0,29.51,East,90,3.3,-999.0,93,0.00,,,0.00,Rainwise IP-100,2013-01-01 17:56:00,
2013-01-01 10:01:00,38.6,37.0,29.51,ESE,112,0.0,-999.0,91,0.00,,,0.00,Rainwise IP-100,2013-01-01 18:01:00,
2013-01-01 10:06:00,39.5,37.0,29.52,SE,135,2.3,-999.0,89,0.00,,,0.00,Rainwise IP-100,2013-01-01 18:06:00,
2013-01-01 10:11:00,40.8,38.0,29.52,SE,135,4.9,-999.0,89,0.00,,,0.00,Rainwise IP-100,2013-01-01 18:11:00,
2013-01-01 10:16:00,41.8,38.0,29.52,SE,135,0.0,-999.0,87,0.00,,,0.00,Rainwise IP-100,2013-01-01 18:16:00,
2013-01-01 10:21:00,42.4,38.0,29.52,SW,225,1.9,-999.0,85,0.00,,,0.00,Rainwise IP-100,2013-01-01 18:21:00,
2013-01-01 10:26:00,43.7,39.0,29.52,NNE,22,4.4,-999.0,83,0.00,,,0.00,Rainwise IP-100,2013-01-01 18:26:00,
2013-01-01 10:31:00,44.8,39.0,29.52,ESE,112,1.6,-999.0,79,0.00,,,0.00,Rainwise IP-100,2013-01-01 18:31:00,
2013-01-01 10:36:00,45.3,38.0,29.52,North,360,1.9,-999.0,76,0.00,,,0.00,Rainwise IP-100,2013-01-01 18:36:00,
2013-01-01 10:41:00,46.6,38.0,29.53,NNW,337,1.6,-999.0,72,0.00,,,0.00,Rainwise IP-100,2013-01-01 18:41:00,
2013-01-01 10:46:00,48.0,37.0,29.53,NNW,337,2.8,-999.0,66,0.00,,,0.00,Rainwise IP-100,2013-01-01 18:46:00,
2013-01-01 10:51:00,48.8,36.0,29.53,North,360,0.0,-999.0,61,0.00,,,0.00,Rainwise IP-100,2013-01-01 18:51:00,
2013-01-01 10:56:00,49.1,36.0,29.52,NNW,337,2.8,-999.0,59,0.00,,,0.00,Rainwise IP-100,2013-01-01 18:56:00,
2013-01-01 11:01:00,49.5,36.0,29.52,NNW,337,0.0,-999.0,58,0.00,,,0.00,Rainwise IP-100,2013-01-01 19:01:00,
2013-01-01 11:06:00,49.9,35.0,29.52,North,360,2.8,-999.0,56,0.00,,,0.00,Rainwise IP-100,2013-01-01 19:06:00,
2013-01-01 11:11:00,49.9,33.0,29.51,NNE,22,7.0,-999.0,54,0.00,,,0.00,Rainwise IP-100,2013-01-01 19:11:00,
2013-01-01 11:16:00,49.2,33.0,29.52,NNE,22,7.7,-999.0,53,0.00,,,0.00,Rainwise IP-100,2013-01-01 19:16:00,
2013-01-01 11:21:00,48.6,32.0,29.51,NNE,22,3.0,-999.0,52,0.00,,,0.00,Rainwise IP-100,2013-01-01 19:21:00,
2013-01-01 11:26:00,48.9,32.0,29.51,NNE,22,3.5,-999.0,52,0.00,,,0.00,Rainwise IP-100,2013-01-01 19:26:00,
2013-01-01 11:31:00,49.9,33.0,29.51,North,360,4.7,-999.0,52,0.00,,,0.00,Rainwise IP-100,2013-01-01 19:31:00,
2013-01-01 11:36:00,50.6,33.0,29.51,NNE,22,1.9,-999.0,51,0.00,,,0.00,Rainwise IP-100,2013-01-01 19:36:00,
2013-01-01 11:41:00,51.1,32.0,29.50,NE,45,3.3,-999.0,48,0.00,,,0.00,Rainwise IP-100,2013-01-01 19:41:00,
2013-01-01 11:46:00,50.9,32.0,29.50,NNE,22,7.0,-999.0,47,0.00,,,0.00,Rainwise IP-100,2013-01-01 19:46:00,
2013-01-01 11:51:00,50.5,31.0,29.50,NNE,22,2.3,-999.0,45,0.00,,,0.00,Rainwise IP-100,2013-01-01 19:51:00,
2013-01-01 11:56:00,50.7,29.0,29.50,NE,45,7.5,-999.0,44,0.00,,,0.00,Rainwise IP-100,2013-01-01 19:56:00,
2013-01-01 12:01:00,50.8,31.0,29.50,NNE,22,7.5,-999.0,44,0.00,,,0.00,Rainwise IP-100,2013-01-01 20:01:00,
2013-01-01 12:06:00,50.9,29.0,29.49,NNE,22,14.2,-999.0,43,0.00,,,0.00,Rainwise IP-100,2013-01-01 20:06:00,
2013-01-01 12:11:00,50.8,29.0,29.49,NNW,337,2.3,-999.0,42,0.00,,,0.00,Rainwise IP-100,2013-01-01 20:11:00,
2013-01-01 12:16:00,51.2,29.0,29.49,NNW,337,6.1,-999.0,41,0.00,,,0.00,Rainwise IP-100,2013-01-01 20:16:00,
2013-01-01 12:21:00,51.7,29.0,29.49,NNE,22,2.8,-999.0,41,0.00,,,0.00,Rainwise IP-100,2013-01-01 20:21:00,
2013-01-01 12:26:00,52.0,29.0,29.49,NNE,22,6.8,-999.0,41,0.00,,,0.00,Rainwise IP-100,2013-01-01 20:26:00,
2013-01-01 12:31:00,52.1,29.0,29.49,NNE,22,3.5,-999.0,41,0.00,,,0.00,Rainwise IP-100,2013-01-01 20:31:00,
2013-01-01 12:36:00,52.3,29.0,29.49,NNW,337,4.0,-999.0,40,0.00,,,0.00,Rainwise IP-100,2013-01-01 20:36:00,
2013-01-01 12:41:00,52.7,29.0,29.48,NE,45,7.2,-999.0,39,0.00,,,0.00,Rainwise IP-100,2013-01-01 20:41:00,
2013-01-01 12:46:00,52.6,28.0,29.49,NNW,337,2.3,-999.0,38,0.00,,,0.00,Rainwise IP-100,2013-01-01 20:46:00,
2013-01-01 12:51:00,52.6,28.0,29.48,NNE,22,4.9,-999.0,38,0.00,,,0.00,Rainwise IP-100,2013-01-01 20:51:00,
2013-01-01 12:56:00,53.2,28.0,29.48,North,360,3.5,-999.0,38,0.00,,,0.00,Rainwise IP-100,2013-01-01 20:56:00,
2013-01-01 13:01:00,53.6,28.0,29.47,NNE,22,4.7,-999.0,37,0.00,,,0.00,Rainwise IP-100,2013-01-01 21:01:00,
2013-01-01 13:06:00,53.6,28.0,29.47,NNW,337,3.3,-999.0,36,0.00,,,0.00,Rainwise IP-100,2013-01-01 21:06:00,
2013-01-01 13:11:00,53.5,28.0,29.47,NNW,337,0.0,-999.0,36,0.00,,,0.00,Rainwise IP-100,2013-01-01 21:11:00,
2013-01-01 13:16:00,53.7,28.0,29.47,NNE,22,3.5,-999.0,36,0.00,,,0.00,Rainwise IP-100,2013-01-01 21:16:00,
2013-01-01 13:21:00,54.2,28.0,29.46,NNW,337,4.4,-999.0,35,0.00,,,0.00,Rainwise IP-100,2013-01-01 21:21:00,
2013-01-01 13:26:00,54.1,26.0,29.46,NNW,337,2.1,-999.0,34,0.00,,,0.00,Rainwise IP-100,2013-01-01 21:26:00,
2013-01-01 13:31:00,54.0,26.0,29.46,NE,45,4.7,-999.0,33,0.00,,,0.00,Rainwise IP-100,2013-01-01 21:31:00,
2013-01-01 13:36:00,53.9,26.0,29.46,NNW,337,4.4,-999.0,33,0.00,,,0.00,Rainwise IP-100,2013-01-01 21:36:00,
2013-01-01 13:41:00,54.4,26.0,29.46,NNW,337,3.3,-999.0,32,0.00,,,0.00,Rainwise IP-100,2013-01-01 21:41:00,
2013-01-01 13:46:00,55.1,26.0,29.46,NNW,337,4.2,-999.0,32,0.00,,,0.00,Rainwise IP-100,2013-01-01 21:46:00,
2013-01-01 13:51:00,55.0,26.0,29.46,ENE,67,3.0,-999.0,32,0.00,,,0.00,Rainwise IP-100,2013-01-01 21:51:00,
2013-01-01 13:56:00,54.7,26.0,29.46,NNE,22,3.5,-999.0,32,0.00,,,0.00,Rainwise IP-100,2013-01-01 21:56:00,
2013-01-01 14:01:00,54.5,26.0,29.46,NE,45,6.3,-999.0,32,0.00,,,0.00,Rainwise IP-100,2013-01-01 22:01:00,
2013-01-01 14:06:00,54.5,26.0,29.46,NNE,22,6.1,-999.0,32,0.00,,,0.00,Rainwise IP-100,2013-01-01 22:06:00,
2013-01-01 14:11:00,54.7,26.0,29.46,NE,45,4.9,-999.0,32,0.00,,,0.00,Rainwise IP-100,2013-01-01 22:11:00,
2013-01-01 14:16:00,55.1,26.0,29.46,WNW,292,5.1,-999.0,32,0.00,,,0.00,Rainwise IP-100,2013-01-01 22:16:00,
2013-01-01 14:21:00,55.3,26.0,29.46,NNW,337,3.7,-999.0,32,0.00,,,0.00,Rainwise IP-100,2013-01-01 22:21:00,
2013-01-01 14:26:00,55.0,26.0,29.46,NNW,337,4.4,-999.0,32,0.00,,,0.00,Rainwise IP-100,2013-01-01 22:26:00,
2013-01-01 14:31:00,55.2,26.0,29.46,NNW,337,6.3,-999.0,32,0.00,,,0.00,Rainwise IP-100,2013-01-01 22:31:00,
2013-01-01 14:36:00,55.4,26.0,29.46,North,360,11.0,-999.0,32,0.00,,,0.00,Rainwise IP-100,2013-01-01 22:36:00,
2013-01-01 14:41:00,55.0,26.0,29.46,North,360,2.6,-999.0,31,0.00,,,0.00,Rainwise IP-100,2013-01-01 22:41:00,
2013-01-01 14:46:00,55.0,26.0,29.46,NNE,22,5.1,-999.0,31,0.00,,,0.00,Rainwise IP-100,2013-01-01 22:46:00,
2013-01-01 14:51:00,55.2,26.0,29.46,NNE,22,5.8,-999.0,31,0.00,,,0.00,Rainwise IP-100,2013-01-01 22:51:00,
2013-01-01 14:56:00,55.3,26.0,29.46,North,360,2.3,-999.0,31,0.00,,,0.00,Rainwise IP-100,2013-01-01 22:56:00,
2013-01-01 15:01:00,55.6,26.0,29.46,North,360,0.0,-999.0,31,0.00,,,0.00,Rainwise IP-100,2013-01-01 23:01:00,
2013-01-01 15:06:00,55.8,26.0,29.46,NNE,22,3.0,-999.0,30,0.00,,,0.00,Rainwise IP-100,2013-01-01 23:06:00,
2013-01-01 15:11:00,55.8,26.0,29.46,ENE,67,2.1,-999.0,30,0.00,,,0.00,Rainwise IP-100,2013-01-01 23:11:00,
2013-01-01 15:16:00,55.9,26.0,29.46,NE,45,1.2,-999.0,30,0.00,,,0.00,Rainwise IP-100,2013-01-01 23:16:00,
2013-01-01 15:21:00,55.9,26.0,29.46,NNE,22,4.0,-999.0,30,0.00,,,0.00,Rainwise IP-100,2013-01-01 23:21:00,
2013-01-01 15:26:00,55.4,24.0,29.46,ENE,67,0.0,-999.0,30,0.00,,,0.00,Rainwise IP-100,2013-01-01 23:26:00,
2013-01-01 15:31:00,55.9,26.0,29.46,NNE,22,0.0,-999.0,31,0.00,,,0.00,Rainwise IP-100,2013-01-01 23:31:00,
2013-01-01 15:36:00,56.2,26.0,29.46,NNW,337,2.3,-999.0,31,0.00,,,0.00,Rainwise IP-100,2013-01-01 23:36:00,
2013-01-01 15:41:00,56.1,26.0,29.45,NNW,337,0.0,-999.0,30,0.00,,,0.00,Rainwise IP-100,2013-01-01 23:41:00,
2013-01-01 15:46:00,56.9,26.0,29.45,NNW,337,1.6,-999.0,30,0.00,,,0.00,Rainwise IP-100,2013-01-01 23:46:00,
2013-01-01 15:51:00,57.1,26.0,29.45,NNE,22,0.0,-999.0,29,0.00,,,0.00,Rainwise IP-100,2013-01-01 23:51:00,
2013-01-01 15:56:00,56.8,26.0,29.45,WNW,292,0.0,-999.0,29,0.00,,,0.00,Rainwise IP-100,2013-01-01 23:56:00,
2013-01-01 16:01:00,56.8,26.0,29.45,WNW,292,0.0,-999.0,30,0.00,,,0.00,Rainwise IP-100,2013-01-02 00:01:00,
2013-01-01 16:06:00,56.8,28.0,29.45,WNW,292,0.0,-999.0,32,0.00,,,0.00,Rainwise IP-100,2013-01-02 00:06:00,
2013-01-01 16:11:00,56.4,28.0,29.45,WNW,292,1.6,-999.0,33,0.00,,,0.00,Rainwise IP-100,2013-01-02 00:11:00,
2013-01-01 16:16:00,55.7,28.0,29.45,WSW,247,2.8,-999.0,33,0.00,,,0.00,Rainwise IP-100,2013-01-02 00:16:00,
2013-01-01 16:21:00,54.3,28.0,29.45,WSW,247,2.3,-999.0,35,0.00,,,0.00,Rainwise IP-100,2013-01-02 00:21:00,
2013-01-01 16:26:00,52.0,28.0,29.45,WNW,292,1.2,-999.0,38,0.00,,,0.00,Rainwise IP-100,2013-01-02 00:26:00,
2013-01-01 16:31:00,50.1,26.0,29.45,West,270,1.4,-999.0,40,0.00,,,0.00,Rainwise IP-100,2013-01-02 00:31:00,
2013-01-01 16:36:00,48.8,28.0,29.45,West,270,0.0,-999.0,42,0.00,,,0.00,Rainwise IP-100,2013-01-02 00:36:00,
2013-01-01 16:41:00,47.7,28.0,29.45,West,270,1.2,-999.0,44,0.00,,,0.00,Rainwise IP-100,2013-01-02 00:41:00,
2013-01-01 16:46:00,46.6,28.0,29.45,West,270,3.3,-999.0,46,0.00,,,0.00,Rainwise IP-100,2013-01-02 00:46:00,
2013-01-01 16:51:00,45.9,28.0,29.44,West,270,0.0,-999.0,47,0.00,,,0.00,Rainwise IP-100,2013-01-02 00:51:00,
2013-01-01 16:56:00,45.5,28.0,29.45,West,270,0.0,-999.0,48,0.00,,,0.00,Rainwise IP-100,2013-01-02 00:56:00,
2013-01-01 17:01:00,45.0,28.0,29.44,West,270,1.9,-999.0,49,0.00,,,0.00,Rainwise IP-100,2013-01-02 01:01:00,
2013-01-01 17:06:00,44.5,28.0,29.44,West,270,1.2,-999.0,50,0.00,,,0.00,Rainwise IP-100,2013-01-02 01:06:00,
2013-01-01 17:11:00,43.9,28.0,29.44,West,270,1.4,-999.0,53,0.00,,,0.00,Rainwise IP-100,2013-01-02 01:11:00,
2013-01-01 17:16:00,43.1,29.0,29.44,West,270,0.0,-999.0,56,0.00,,,0.00,Rainwise IP-100,2013-01-02 01:16:00,
2013-01-01 17:21:00,42.5,29.0,29.44,West,270,1.6,-999.0,58,0.00,,,0.00,Rainwise IP-100,2013-01-02 01:21:00,
2013-01-01 17:26:00,41.8,29.0,29.44,West,270,0.0,-999.0,60,0.00,,,0.00,Rainwise IP-100,2013-01-02 01:26:00,
2013-01-01 17:31:00,41.1,29.0,29.44,West,270,1.9,-999.0,61,0.00,,,0.00,Rainwise IP-100,2013-01-02 01:31:00,
2013-01-01 17:36:00,40.4,29.0,29.44,West,270,1.4,-999.0,63,0.00,,,0.00,Rainwise IP-100,2013-01-02 01:36:00,
2013-01-01 17:41:00,39.7,29.0,29.44,West,270,2.3,-999.0,65,0.00,,,0.00,Rainwise IP-100,2013-01-02 01:41:00,
2013-01-01 17:46:00,39.2,29.0,29.45,WSW,247,2.8,-999.0,66,0.00,,,0.00,Rainwise IP-100,2013-01-02 01:46:00,
2013-01-01 17:52:00,38.7,29.0,29.45,WSW,247,0.0,-999.0,68,0.00,,,0.00,Rainwise IP-100,2013-01-02 01:52:00,
2013-01-01 17:57:00,38.4,29.0,29.45,NNW,337,1.6,-999.0,69,0.00,,,0.00,Rainwise IP-100,2013-01-02 01:57:00,
2013-01-01 18:02:00,38.1,29.0,29.45,North,360,0.0,-999.0,69,0.00,,,0.00,Rainwise IP-100,2013-01-02 02:02:00,
2013-01-01 18:07:00,37.9,29.0,29.45,NNW,337,0.0,-999.0,70,0.00,,,0.00,Rainwise IP-100,2013-01-02 02:07:00,
2013-01-01 18:12:00,37.6,29.0,29.45,WNW,292,3.0,-999.0,70,0.00,,,0.00,Rainwise IP-100,2013-01-02 02:12:00,
2013-01-01 18:17:00,37.0,29.0,29.45,West,270,2.6,-999.0,72,0.00,,,0.00,Rainwise IP-100,2013-01-02 02:17:00,
2013-01-01 18:22:00,36.5,29.0,29.45,West,270,1.9,-999.0,73,0.00,,,0.00,Rainwise IP-100,2013-01-02 02:22:00,
2013-01-01 18:27:00,36.3,29.0,29.45,West,270,1.6,-999.0,74,0.00,,,0.00,Rainwise IP-100,2013-01-02 02:27:00,
2013-01-01 18:32:00,36.1,29.0,29.45,West,270,2.1,-999.0,75,0.00,,,0.00,Rainwise IP-100,2013-01-02 02:32:00,
2013-01-01 18:37:00,36.1,29.0,29.45,West,270,1.9,-999.0,74,0.00,,,0.00,Rainwise IP-100,2013-01-02 02:37:00,
2013-01-01 18:42:00,36.3,29.0,29.45,West,270,0.0,-999.0,74,0.00,,,0.00,Rainwise IP-100,2013-01-02 02:42:00,
2013-01-01 18:47:00,36.3,28.0,29.45,West,270,0.0,-999.0,73,0.00,,,0.00,Rainwise IP-100,2013-01-02 02:47:00,
2013-01-01 18:52:00,36.2,28.0,29.45,West,270,1.9,-999.0,73,0.00,,,0.00,Rainwise IP-100,2013-01-02 02:52:00,
2013-01-01 18:57:00,35.8,29.0,29.45,West,270,0.0,-999.0,74,0.00,,,0.00,Rainwise IP-100,2013-01-02 02:57:00,
2013-01-01 19:02:00,35.2,28.0,29.45,West,270,0.0,-999.0,75,0.00,,,0.00,Rainwise IP-100,2013-01-02 03:02:00,
2013-01-01 19:07:00,35.0,28.0,29.45,West,270,2.1,-999.0,76,0.00,,,0.00,Rainwise IP-100,2013-01-02 03:07:00,
2013-01-01 19:12:00,35.0,28.0,29.45,West,270,0.0,-999.0,77,0.00,,,0.00,Rainwise IP-100,2013-01-02 03:12:00,
2013-01-01 19:17:00,35.2,28.0,29.45,NW,315,1.4,-999.0,75,0.00,,,0.00,Rainwise IP-100,2013-01-02 03:17:00,
2013-01-01 19:22:00,36.0,28.0,29.45,NW,315,2.3,-999.0,73,0.00,,,0.00,Rainwise IP-100,2013-01-02 03:22:00,
2013-01-01 19:27:00,37.0,28.0,29.45,NW,315,1.2,-999.0,70,0.00,,,0.00,Rainwise IP-100,2013-01-02 03:27:00,
2013-01-01 19:32:00,38.1,28.0,29.45,NNW,337,2.6,-999.0,66,0.00,,,0.00,Rainwise IP-100,2013-01-02 03:32:00,
2013-01-01 19:37:00,39.2,28.0,29.45,NNW,337,2.6,-999.0,63,0.00,,,0.00,Rainwise IP-100,2013-01-02 03:37:00,
2013-01-01 19:42:00,39.7,28.0,29.45,NNW,337,1.6,-999.0,60,0.00,,,0.00,Rainwise IP-100,2013-01-02 03:42:00,
2013-01-01 19:47:00,39.5,28.0,29.45,NNW,337,0.0,-999.0,60,0.00,,,0.00,Rainwise IP-100,2013-01-02 03:47:00,
2013-01-01 19:52:00,38.8,28.0,29.46,NNW,337,0.0,-999.0,62,0.00,,,0.00,Rainwise IP-100,2013-01-02 03:52:00,
2013-01-01 19:57:00,37.5,28.0,29.46,East,90,0.0,-999.0,65,0.00,,,0.00,Rainwise IP-100,2013-01-02 03:57:00,
2013-01-01 20:02:00,36.4,26.0,29.46,SSE,157,0.0,-999.0,68,0.00,,,0.00,Rainwise IP-100,2013-01-02 04:02:00,
2013-01-01 20:07:00,35.8,28.0,29.46,SSE,157,0.0,-999.0,71,0.00,,,0.00,Rainwise IP-100,2013-01-02 04:07:00,
2013-01-01 20:12:00,35.4,26.0,29.46,SSE,157,0.0,-999.0,72,0.00,,,0.00,Rainwise IP-100,2013-01-02 04:12:00,
2013-01-01 20:17:00,35.3,28.0,29.46,SSE,157,0.0,-999.0,73,0.00,,,0.00,Rainwise IP-100,2013-01-02 04:17:00,
2013-01-01 20:22:00,35.2,28.0,29.46,SSE,157,0.0,-999.0,73,0.00,,,0.00,Rainwise IP-100,2013-01-02 04:22:00,
2013-01-01 20:27:00,35.0,28.0,29.46,SSE,157,0.0,-999.0,74,0.00,,,0.00,Rainwise IP-100,2013-01-02 04:27:00,
2013-01-01 20:32:00,34.5,28.0,29.46,SSW,202,0.0,-999.0,75,0.00,,,0.00,Rainwise IP-100,2013-01-02 04:32:00,
2013-01-01 20:37:00,34.0,28.0,29.46,SW,225,0.0,-999.0,76,0.00,,,0.00,Rainwise IP-100,2013-01-02 04:37:00,
2013-01-01 20:42:00,33.9,28.0,29.46,SW,225,0.0,-999.0,77,0.00,,,0.00,Rainwise IP-100,2013-01-02 04:42:00,
2013-01-01 20:47:00,34.4,28.0,29.46,WSW,247,2.3,-999.0,77,0.00,,,0.00,Rainwise IP-100,2013-01-02 04:47:00,
2013-01-01 20:52:00,34.5,28.0,29.46,WSW,247,1.2,-999.0,76,0.00,,,0.00,Rainwise IP-100,2013-01-02 04:52:00,
2013-01-01 20:57:00,34.2,28.0,29.46,WSW,247,0.0,-999.0,76,0.00,,,0.00,Rainwise IP-100,2013-01-02 04:57:00,
2013-01-01 21:00:00,33.9,28.0,29.46,WSW,247,0.0,-999.0,76,0.00,,,0.00,Rainwise IP-100,2013-01-02 05:00:00,
2013-01-01 21:05:00,33.5,28.0,29.46,WSW,247,2.6,-999.0,77,0.00,,,0.00,Rainwise IP-100,2013-01-02 05:05:00,
2013-01-01 21:10:00,33.0,28.0,29.46,WSW,247,0.0,-999.0,78,0.00,,,0.00,Rainwise IP-100,2013-01-02 05:10:00,
2013-01-01 21:15:00,32.8,28.0,29.46,WSW,247,2.8,-999.0,80,0.00,,,0.00,Rainwise IP-100,2013-01-02 05:15:00,
2013-01-01 21:20:00,32.7,28.0,29.46,WSW,247,2.3,-999.0,80,0.00,,,0.00,Rainwise IP-100,2013-01-02 05:20:00,
2013-01-01 21:25:00,32.7,28.0,29.46,WSW,247,0.0,-999.0,81,0.00,,,0.00,Rainwise IP-100,2013-01-02 05:25:00,
2013-01-01 21:30:00,32.8,28.0,29.46,WSW,247,1.9,-999.0,81,0.00,,,0.00,Rainwise IP-100,2013-01-02 05:30:00,
2013-01-01 21:35:00,32.4,28.0,29.46,WSW,247,0.0,-999.0,82,0.00,,,0.00,Rainwise IP-100,2013-01-02 05:35:00,
2013-01-01 21:40:00,32.0,28.0,29.46,WSW,247,0.0,-999.0,82,0.00,,,0.00,Rainwise IP-100,2013-01-02 05:40:00,
2013-01-01 21:45:00,31.8,28.0,29.46,WSW,247,0.0,-999.0,82,0.00,,,0.00,Rainwise IP-100,2013-01-02 05:45:00,
2013-01-01 21:50:00,31.5,28.0,29.46,WSW,247,2.3,-999.0,83,0.00,,,0.00,Rainwise IP-100,2013-01-02 05:50:00,
2013-01-01 21:55:00,31.3,26.0,29.46,WSW,247,0.0,-999.0,84,0.00,,,0.00,Rainwise IP-100,2013-01-02 05:55:00,
2013-01-01 22:00:00,31.5,28.0,29.46,WSW,247,2.3,-999.0,84,0.00,,,0.00,Rainwise IP-100,2013-01-02 06:00:00,
2013-01-01 22:05:00,31.4,26.0,29.46,WSW,247,2.6,-999.0,84,0.00,,,0.00,Rainwise IP-100,2013-01-02 06:05:00,
2013-01-01 22:10:00,31.4,26.0,29.47,WSW,247,1.4,-999.0,85,0.00,,,0.00,Rainwise IP-100,2013-01-02 06:10:00,
2013-01-01 22:15:00,31.5,28.0,29.47,WSW,247,2.6,-999.0,85,0.00,,,0.00,Rainwise IP-100,2013-01-02 06:15:00,
2013-01-01 22:20:00,31.7,28.0,29.48,WSW,247,0.0,-999.0,84,0.00,,,0.00,Rainwise IP-100,2013-01-02 06:20:00,
2013-01-01 22:25:00,32.1,28.0,29.47,WSW,247,0.0,-999.0,83,0.00,,,0.00,Rainwise IP-100,2013-01-02 06:25:00,
2013-01-01 22:30:00,32.2,28.0,29.47,WSW,247,1.2,-999.0,83,0.00,,,0.00,Rainwise IP-100,2013-01-02 06:30:00,
2013-01-01 22:35:00,31.6,28.0,29.48,WSW,247,1.6,-999.0,84,0.00,,,0.00,Rainwise IP-100,2013-01-02 06:35:00,
2013-01-01 22:40:00,31.0,26.0,29.48,WSW,247,2.3,-999.0,84,0.00,,,0.00,Rainwise IP-100,2013-01-02 06:40:00,
2013-01-01 22:45:00,30.6,28.0,29.48,WSW,247,0.0,-999.0,86,0.00,,,0.00,Rainwise IP-100,2013-01-02 06:45:00,
2013-01-01 22:50:00,30.8,28.0,29.48,WSW,247,0.0,-999.0,86,0.00,,,0.00,Rainwise IP-100,2013-01-02 06:50:00,
2013-01-01 22:55:00,30.9,28.0,29.48,WSW,247,0.0,-999.0,86,0.00,,,0.00,Rainwise IP-100,2013-01-02 06:55:00,
2013-01-01 23:00:00,30.6,28.0,29.48,WSW,247,0.0,-999.0,87,0.00,,,0.00,Rainwise IP-100,2013-01-02 07:00:00,
2013-01-01 23:05:00,30.2,28.0,29.48,WSW,247,2.1,-999.0,87,0.00,,,0.00,Rainwise IP-100,2013-01-02 07:05:00,
2013-01-01 23:10:00,29.8,28.0,29.48,WSW,247,2.3,-999.0,87,0.00,,,0.00,Rainwise IP-100,2013-01-02 07:10:00,
2013-01-01 23:15:00,29.9,28.0,29.48,WSW,247,0.0,-999.0,88,0.00,,,0.00,Rainwise IP-100,2013-01-02 07:15:00,
2013-01-01 23:20:00,30.3,28.0,29.48,WSW,247,0.0,-999.0,88,0.00,,,0.00,Rainwise IP-100,2013-01-02 07:20:00,
2013-01-01 23:25:00,30.4,28.0,29.48,WSW,247,1.2,-999.0,88,0.00,,,0.00,Rainwise IP-100,2013-01-02 07:25:00,
2013-01-01 23:30:00,30.1,28.0,29.48,WSW,247,2.8,-999.0,88,0.00,,,0.00,Rainwise IP-100,2013-01-02 07:30:00,
2013-01-01 23:35:00,29.7,28.0,29.48,WSW,247,1.9,-999.0,88,0.00,,,0.00,Rainwise IP-100,2013-01-02 07:35:00,
2013-01-01 23:40:00,29.7,28.0,29.48,WSW,247,0.0,-999.0,89,0.00,,,0.00,Rainwise IP-100,2013-01-02 07:40:00,
2013-01-01 23:45:00,30.0,28.0,29.48,WSW,247,0.0,-999.0,89,0.00,,,0.00,Rainwise IP-100,2013-01-02 07:45:00,
2013-01-01 23:50:00,30.1,28.0,29.48,WSW,247,1.6,-999.0,89,0.00,,,0.00,Rainwise IP-100,2013-01-02 07:50:00,
2013-01-01 23:55:00,29.9,28.0,29.48,WSW,247,1.6,-999.0,89,0.00,,,0.00,Rainwise IP-100,2013-01-02 07:55:00,